Location: Gökben Yaylas?
(36.8988°N, 29.6291°E)
Time: 10:20:27
(UTC+00:00)

Cosmos 1745 Rocket - Pass Details

Date: 15 May 2026
Orbit: 951 x 998 km, 83.0° (Epoch: 5 June)

Event Time Altitude Azimuth Distance (km) Brightness Sun altitude
Rises 23:09:09 0° 357° (N) 3,633 7.9 -31.6°
Reaches altitude 10° 23:11:41 10° 1° (N) 2,686 7.1 -31.4°
Maximum altitude 23:17:45 60° 81° (E) 1,085 4.2 -31.0°
Enters shadow 23:18:00 60° 93° (E) 1,089 4.2 -30.9°
